Weather History for Houghton, MI

Change the Weather History Date:

Monday, October 28, 2013

  Actual Average Record
Temperature  
Mean Temperature 26 °F -  
Max Temperature 37 °F 46 °F 67 °F (1974)
Min Temperature 18 °F 34 °F 18 °F (1952)
Degree Days  
Heating Degree Days 38    
Moisture  
Dew Point 19 °F    
Average Humidity 64    
Maximum Humidity 84    
Minimum Humidity 52    
Precipitation  
Precipitation 0.00 in - - ()
Sea Level Pressure  
Sea Level Pressure 30.45 in    
Wind  
Wind Speed 7 mph (North)    
Max Wind Speed 12 mph    
Max Gust Speed 18 mph    
Visibility 10 miles    
Events      
Averages and records for this station are not official NWS values.
T = Trace of Precipitation, MM = Missing Value Source: NWS Daily Summary

Daily Weather History Graph

Daily Weather History Graph

Search for Another Location

Airport:

Trip Planner

Search our weather history database for the weather conditions in past years. The results will help you decide how hot, cold, wet, or windy it might be!

Date:

Astronomy

Oct. 28, 2013 Rise Set
Actual Time 8:31 AM EDT 6:43 PM EDT
Civil Twilight 7:59 AM EDT 7:14 PM EDT
Nautical Twilight 7:23 AM EDT 7:50 PM EDT
Astronomical Twilight 6:48 AM EDT 8:26 PM EDT
Moon 2:01 AM EDT (10/28) 3:46 PM EDT (10/28)
Length of Visible Light 11h 15m
Length of Day
10h 11m
Waning Crescent, 34% of the Moon is Illuminated
Oct 28
Waning Crescent
Nov 3
New
Nov 10
First Quarter
Nov 17
Full
Nov 25
Last Quarter

Hourly Weather History & Observations

Time (EDT) Temp. Windchill Dew Point Humidity Pressure Visibility Wind Dir Wind Speed Gust Speed Precip Events Conditions
12:53 AM 30.9 °F 23.5 °F 21.0 °F 67% 30.23 in 10.0 mi North 8.1 mph - N/A   Mostly Cloudy
1:53 AM 30.0 °F 21.1 °F 19.9 °F 66% 30.27 in 10.0 mi NNE 10.4 mph 18.4 mph N/A   Mostly Cloudy
2:53 AM 30.0 °F 20.5 °F 18.0 °F 61% 30.30 in 10.0 mi NE 11.5 mph 18.4 mph N/A   Clear
3:53 AM 30.0 °F 25.2 °F 19.0 °F 64% 30.33 in 10.0 mi ENE 4.6 mph - N/A   Overcast
4:53 AM 30.9 °F 23.5 °F 19.0 °F 61% 30.35 in 10.0 mi NE 8.1 mph - N/A   Overcast
5:53 AM 30.9 °F 24.3 °F 19.0 °F 61% 30.37 in 10.0 mi NNE 6.9 mph - N/A   Overcast
6:53 AM 30.9 °F 24.3 °F 19.9 °F 64% 30.40 in 10.0 mi NE 6.9 mph - N/A   Overcast
7:53 AM 30.9 °F 25.2 °F 19.0 °F 61% 30.42 in 10.0 mi NE 5.8 mph - N/A   Overcast
8:53 AM 30.9 °F 26.2 °F 18.0 °F 59% 30.45 in 10.0 mi NE 4.6 mph - N/A   Overcast
9:53 AM 32.0 °F 28.7 °F 19.0 °F 59% 30.48 in 10.0 mi NNE 3.5 mph - N/A   Overcast
10:26 AM 30.2 °F 22.6 °F 21.2 °F 69% 30.44 in 10.0 mi NE 8.1 mph - N/A   Overcast
10:46 AM 32.0 °F 24.2 °F 21.2 °F 64% 30.45 in 10.0 mi NNE 9.2 mph - N/A   Overcast
10:53 AM 32.0 °F 24.2 °F 21.0 °F 64% 30.50 in 10.0 mi NNE 9.2 mph - N/A   Overcast
11:53 AM 33.1 °F 26.9 °F 19.9 °F 59% 30.53 in 10.0 mi North 6.9 mph - N/A   Overcast
12:53 PM 33.1 °F 27.7 °F 18.0 °F 54% 30.53 in 10.0 mi NE 5.8 mph - N/A   Overcast
1:53 PM 34.0 °F 29.8 °F 18.0 °F 52% 30.53 in 10.0 mi NNW 4.6 mph - N/A   Overcast
2:53 PM 35.1 °F 29.3 °F 19.0 °F 52% 30.51 in 10.0 mi WNW 6.9 mph - N/A   Mostly Cloudy
3:53 PM 35.1 °F 30.1 °F 19.0 °F 52% 30.51 in 10.0 mi NNW 5.8 mph - N/A   Clear
4:53 PM 34.0 °F 28.0 °F 19.9 °F 56% 30.50 in 10.0 mi NNW 6.9 mph - N/A   Clear
5:53 PM 32.0 °F 26.4 °F 19.0 °F 59% 30.50 in 10.0 mi NW 5.8 mph - N/A   Clear
6:53 PM 27.0 °F 20.5 °F 18.0 °F 69% 30.50 in 10.0 mi NW 5.8 mph - N/A   Clear
7:53 PM 25.0 °F 17.1 °F 18.0 °F 75% 30.51 in 10.0 mi NW 6.9 mph - N/A   Clear
8:53 PM 23.0 °F 15.8 °F 18.0 °F 81% 30.51 in 10.0 mi NW 5.8 mph - N/A   Clear
9:53 PM 21.9 °F 15.7 °F 17.1 °F 82% 30.50 in 10.0 mi WNW 4.6 mph - N/A   Clear
10:53 PM 18.0 °F 8.7 °F 14.0 °F 84% 30.51 in 10.0 mi NW 6.9 mph - N/A   Clear
11:53 PM 24.1 °F - 19.0 °F 81% 30.51 in 10.0 mi Calm Calm - N/A   Clear